Date String (YYYY-MM-DD hh:mm:ss) UTC,Instrument flags,Ambient pressure (hPa),Sample flow (lpm),Bypass flow (lpm),Sample temperature (°C),Ambient temperature (°C),ASC tube jacket temperature (°C),LED temperature (°C),Box temperature (°C),Sample RH (%),Span deviation,Mass concentration (μg/m³),Mass concentration (μg/m³),Mass concentration (μg/m³)
DateTimeUTC,F1_M11,P_M11,Q1_M11,Q2_M11,T1_M11,T2_M11,T3_M11,T4_M11,T5_M11,U1_M11,ZSPAN_M11,X0_M11,X2_M11,X1_M11
2022-03-08 00:00:00,,0826.0,5.00,0.00,22.1,21.5,00.0,31.1,23.9,08.0,0001.4,0009.37,0006.46,0006.24
2022-03-08 00:01:00,,0826.0,5.00,0.00,22.1,21.4,00.0,31.1,23.9,07.9,0001.4,0008.66,0006.43,0006.21
2022-03-08 00:02:00,,0826.0,5.00,0.00,22.1,21.3,00.0,31.1,23.8,08.0,0000.4,0008.54,0006.39,0006.18
2022-03-08 00:03:00,,0826.0,5.00,0.00,22.1,21.3,00.0,31.1,23.8,08.0,0000.0,0008.74,0006.38,0006.15
2022-03-08 00:04:00,,0826.0,5.00,0.00,22.1,21.3,00.0,31.1,23.8,08.1,0000.2,0009.00,0006.37,0006.14
2022-03-08 00:05:00,,0826.0,5.01,0.00,22.0,21.3,00.0,31.1,23.7,08.1,0000.5,0009.23,0006.36,0006.12
2022-03-08 00:06:00,,0826.0,5.02,0.00,22.0,21.3,00.0,31.1,23.7,08.0,0000.0,0009.30,0006.35,0006.10
2022-03-08 00:07:00,,0826.0,5.01,0.00,22.0,21.3,00.0,31.1,23.7,08.0,0000.1,0009.63,0006.34,0006.08
2022-03-08 00:08:00,,0826.0,4.99,0.00,22.0,21.3,00.0,31.1,23.7,08.0,0000.0,0009.64,0006.33,0006.07
2022-03-08 00:09:00,,0826.0,5.00,0.00,22.0,21.3,00.0,31.1,23.8,07.8,0000.2,0009.63,0006.32,0006.07
2022-03-08 00:10:00,,0826.0,5.00,0.00,22.0,21.3,00.0,31.1,23.8,07.9,0000.0,0009.55,0006.32,0006.08
2022-03-08 00:11:00,,0826.0,5.00,0.00,22.0,21.3,00.0,31.1,23.8,07.9,0001.0,0010.06,0006.32,0006.09
2022-03-08 00:12:00,,0826.0,5.00,0.00,22.0,21.3,00.0,31.0,23.8,07.9,0001.2,0010.42,0006.34,0006.11
2022-03-08 00:13:00,,0826.0,5.00,0.00,22.0,21.4,00.0,31.0,23.8,08.0,0001.2,0010.77,0006.36,0006.13
2022-03-08 00:14:00,,0826.0,5.00,0.00,22.0,21.4,00.0,31.0,23.8,07.9,0001.3,0010.84,0006.36,0006.15
2022-03-08 00:15:00,,0826.0,5.00,0.00,22.0,21.4,00.0,31.0,23.8,07.9,0001.4,0010.44,0006.34,0006.15
2022-03-08 00:16:00,,0826.0,5.00,0.00,22.0,21.4,00.0,31.0,23.8,07.9,0001.3,0010.23,0006.32,0006.14
2022-03-08 00:17:00,,0826.0,4.99,0.00,22.0,21.4,00.0,31.0,23.8,07.9,0001.8,0010.14,0006.31,0006.13
2022-03-08 00:18:00,,0826.0,5.00,0.00,22.0,21.4,00.0,31.0,23.8,07.8,0001.6,0010.33,0006.30,0006.13
2022-03-08 00:19:00,,0826.0,4.99,0.00,22.0,21.4,00.0,31.0,23.8,07.8,0001.2,0010.60,0006.29,0006.11
2022-03-08 00:20:00,,0826.0,4.99,0.00,22.0,21.4,00.0,31.0,23.7,07.9,0001.4,0010.65,0006.30,0006.09
2022-03-08 00:21:00,,0826.0,5.00,0.00,22.0,21.4,00.0,31.0,23.7,07.9,0001.6,0010.80,0006.32,0006.06
2022-03-08 00:22:00,,0826.0,5.00,0.00,22.0,21.4,00.0,31.0,23.7,08.0,0001.5,0010.77,0006.31,0006.03
2022-03-08 00:23:00,,0826.0,5.01,0.00,22.0,21.3,00.0,31.0,23.7,08.1,0001.3,0009.92,0006.28,0006.00
2022-03-08 00:24:00,,0826.0,4.99,0.00,21.9,21.3,00.0,31.0,23.7,08.1,0002.1,0009.78,0006.27,0005.98
2022-03-08 00:25:00,,0826.0,5.01,0.00,21.9,21.2,00.0,31.0,23.6,08.2,0001.9,0009.37,0006.27,0005.97
2022-03-08 00:26:00,,0826.0,5.00,0.00,21.9,21.2,00.0,31.0,23.6,08.2,0001.8,0009.40,0006.27,0005.98
2022-03-08 00:27:00,,0826.0,5.00,0.00,21.9,21.1,00.0,31.0,23.5,08.2,0001.8,0010.08,0006.29,0005.99
2022-03-08 00:28:00,,0826.0,4.99,0.00,21.8,21.1,00.0,31.0,23.4,08.2,0001.1,0010.14,0006.32,0006.00
2022-03-08 00:29:00,,0826.1,5.00,0.00,21.8,21.0,00.0,30.9,23.4,08.1,0000.5,0009.83,0006.32,0006.02
2022-03-08 00:30:00,,0826.0,5.00,0.00,21.7,20.9,00.0,30.9,23.3,08.1,0001.0,0009.22,0006.32,0006.05
2022-03-08 00:31:00,,0826.1,5.01,0.00,21.7,20.9,00.0,30.9,23.3,08.2,0000.2,0009.16,0006.33,0006.09
2022-03-08 00:32:00,,0826.1,5.00,0.00,21.7,20.8,00.0,30.9,23.3,08.2,-000.3,0009.05,0006.34,0006.15
2022-03-08 00:33:00,,0826.1,5.00,0.00,21.6,20.8,00.0,30.8,23.2,08.2,-000.4,0009.48,0006.41,0006.20
2022-03-08 00:34:00,,0826.1,4.99,0.00,21.6,20.8,00.0,30.8,23.2,08.2,-000.3,0009.59,0006.42,0006.21
2022-03-08 00:35:00,,0826.1,5.00,0.00,21.6,20.8,00.0,30.8,23.2,08.3,-000.1,0009.72,0006.43,0006.22
2022-03-08 00:36:00,,0826.2,5.00,0.00,21.6,21.2,00.0,30.8,23.4,08.3,0000.3,0009.74,0006.44,0006.23
2022-03-08 00:37:00,,0826.1,5.01,0.00,21.8,21.9,00.0,30.8,23.6,08.2,0000.2,0009.64,0006.45,0006.23
2022-03-08 00:38:00,,0826.1,5.00,0.00,21.9,22.7,00.0,30.9,23.9,08.0,0000.3,0009.10,0006.44,0006.22
2022-03-08 00:39:00,,0826.1,5.00,0.00,22.0,22.7,00.0,30.9,24.0,08.0,0000.7,0009.16,0006.44,0006.21
2022-03-08 00:40:00,,0826.2,5.00,0.00,22.1,22.5,00.0,30.9,24.0,08.2,0000.4,0009.15,0006.44,0006.20
2022-03-08 00:41:00,,0826.2,4.99,0.00,22.1,22.3,00.0,30.9,23.9,08.2,0000.1,0009.19,0006.46,0006.21
2022-03-08 00:42:00,,0826.2,5.01,0.00,22.1,22.1,00.0,31.0,23.9,08.1,0000.3,0009.25,0006.48,0006.19
2022-03-08 00:43:00,,0826.1,5.00,0.00,22.1,22.0,00.0,31.0,23.9,08.1,0000.3,0009.22,0006.45,0006.16
2022-03-08 00:44:00,,0826.1,5.01,0.00,22.1,21.8,00.0,31.0,23.8,08.1,0000.5,0008.75,0006.38,0006.13
2022-03-08 00:45:00,,0826.1,5.00,0.00,22.0,21.7,00.0,31.0,23.8,08.0,0001.0,0008.67,0006.37,0006.13
2022-03-08 00:46:00,,0826.1,4.99,0.00,22.0,21.7,00.0,31.0,23.8,08.0,0000.5,0008.60,0006.35,0006.11
2022-03-08 00:47:00,,0826.0,5.01,0.00,22.0,21.6,00.0,31.0,23.8,08.1,0000.1,0008.54,0006.33,0006.10
2022-03-08 00:48:00,,0826.0,5.00,0.00,22.0,21.5,00.0,31.0,23.7,08.1,-000.1,0008.52,0006.31,0006.08
2022-03-08 00:49:00,,0826.0,5.00,0.00,22.0,21.5,00.0,31.0,23.7,08.1,-000.2,0008.50,0006.31,0006.08
2022-03-08 00:50:00,,0826.0,5.00,0.00,22.0,21.4,00.0,31.0,23.7,08.1,-000.7,0008.40,0006.30,0006.07
2022-03-08 00:51:00,,0826.0,5.00,0.00,22.0,21.4,00.0,31.0,23.7,08.1,-000.6,0008.37,0006.28,0006.05
2022-03-08 00:52:00,,0826.0,5.00,0.00,22.0,21.4,00.0,31.0,23.7,08.1,0000.0,0008.48,0006.26,0006.02
2022-03-08 00:53:00,,0826.1,5.00,0.00,22.0,21.3,00.0,31.0,23.7,08.1,0000.0,0008.81,0006.24,0006.01
2022-03-08 00:54:00,,0826.0,5.00,0.00,21.9,21.3,00.0,31.0,23.7,08.1,0000.0,0009.64,0006.25,0006.01
2022-03-08 00:55:00,,0826.1,5.00,0.00,21.9,21.3,00.0,31.0,23.7,08.2,0000.0,0009.63,0006.25,0006.00
2022-03-08 00:56:00,,0826.1,4.99,0.00,21.9,21.3,00.0,31.0,23.7,08.2,0000.1,0009.64,0006.26,0006.01
2022-03-08 00:57:00,,0826.1,5.00,0.00,21.9,21.3,00.0,31.0,23.7,08.2,0000.0,0009.61,0006.26,0006.00
2022-03-08 00:58:00,,0826.1,5.00,0.00,21.9,21.3,00.0,31.0,23.7,08.2,0000.0,0009.63,0006.26,0006.01
2022-03-08 00:59:00,,0826.1,5.01,0.00,21.9,21.3,00.0,30.9,23.7,08.2,0000.0,0009.72,0006.28,0006.01
